Temperature
22 24 25 25 26 25 23 21 21 21 20 20 19 19 19 20 20 19 19 19 19 19 19 19 19 18 18 18 18 17 17 17 17 17 16 16 16 16 16 16 16 15 16 16
23 24 25 25 25 25 25 24 22 21 20 19 19 19 19 19 19 19 19 19 19 19 18 18 18 18 18 17 17 17 17 17 16 16 16 16 15 15 15 15 15 15 15 15
21 23 24 23 23 24 24 23 22 21 20 18 18 18 19 19 19 18 18 18 18 18 18 18 18 18 17 17 17 17 16 16 16 16 16 15 15 15 15 15 15 15 15 15
19 22 22 21 22 23 23 23 22 21 19 19 18 19 19 20 19 19 18 18 18 18 18 18 17 17 17 17 17 16 16 16 16 15 15 15 15 15 14 14 14 14 14 14
17 19 20 22 22 22 22 20 20 20 19 19 18 18 18 19 19 19 19 18 18 18 18 17 17 17 17 16 16 16 16 15 15 15 15 14 14 14 14 14 14 14 14 14
18 20 20 21 22 22 21 19 20 19 19 18 18 17 17 18 18 18 18 18 18 17 17 17 17 16 16 16 16 16 15 15 15 15 14 14 14 14 14 14 13 13 13 13
18 19 19 20 21 22 20 19 19 19 19 19 18 18 18 17 17 18 18 17 17 17 17 16 16 16 16 15 15 15 15 15 15 14 14 14 14 13 13 13 13 13 13 13
16 18 18 19 20 19 18 18 19 19 19 18 18 17 17 17 17 17 17 17 17 16 16 16 15 15 15 15 15 14 14 14 14 14 13 13 13 13 13 13 13 13 12 12
16 16 17 18 19 19 19 18 19 19 19 19 17 17 16 16 16 16 16 16 16 16 15 15 15 15 15 14 14 14 14 13 13 13 13 13 13 13 13 12 12 12 12 12
15 15 16 17 18 19 19 19 19 19 19 18 17 16 16 16 16 15 15 15 15 15 15 14 14 14 14 14 13 13 13 13 12 12 12 12 12 12 12 12 12 12 11 11
14 15 15 16 17 18 18 19 18 18 18 17 17 16 15 15 15 15 15 15 15 15 14 14 14 13 13 13 13 13 12 12 12 12 12 12 11 11 11 11 11 11 11 11
14 14 14 15 16 17 17 17 17 17 16 16 16 15 15 14 14 14 14 14 14 14 14 13 13 13 13 12 12 12 12 12 11 11 11 11 11 11 10 10 10 10 10 10
15 15 15 15 15 16 16 16 16 16 15 15 14 15 14 14 13 13 13 13 13 13 13 13 12 12 12 12 12 12 12 11 11 11 11 11 10 10 10 9 9 9 9 9
16 16 15 15 15 16 15 15 15 15 15 14 14 14 14 13 13 13 13 12 12 12 12 12 12 11 11 11 11 11 11 11 11 10 10 10 10 10 9 9 9 8 8 8
15 15 15 15 15 15 15 15 14 14 13 13 13 13 13 13 12 12 12 12 12 12 11 11 11 11 11 11 11 11 10 10 10 10 10 9 9 9 9 8 8 8 7 7
14 14 14 14 14 14 14 14 13 12 12 12 12 12 12 12 11 11 11 11 11 11 11 10 10 10 10 10 10 10 10 10 10 9 9 9 9 8 8 8 8 7 7 7
13 13 13 13 13 13 13 13 13 12 12 12 11 11 11 11 11 10 10 10 10 10 10 10 10 10 10 10 10 10 10 9 9 9 9 9 8 8 8 8 7 7 7 7
15 14 14 13 13 12 12 12 12 11 11 11 11 11 11 10 10 10 10 10 10 10 10 10 10 9 9 9 10 9 9 9 9 9 9 8 8 8 8 7 7 7 7 6
14 14 13 13 13 13 12 12 11 11 11 11 11 10 10 10 10 10 9 9 9 9 9 9 9 9 9 9 9 9 9 9 9 8 8 8 8 8 7 7 7 7 6 6
13 13 13 12 12 12 12 11 11 11 10 10 10 10 10 9 9 9 9 9 9 9 9 9 9 9 9 9 9 9 9 9 9 8 8 8 7 7 7 7 7 6 6 6
12 12 12 12 11 11 11 11 11 10 10 10 10 10 9 9 9 9 9 9 9 9 9 9 9 9 9 9 9 9 9 9 8 8 8 8 7 7 7 7 6 6 6 6
12 12 11 11 11 10 10 10 10 10 10 9 10 9 9 9 9 9 9 9 8 8 8 8 9 9 9 9 9 9 9 8 8 8 8 7 7 7 7 7 6 6 6 6
11 11 11 11 10 10 10 10 10 9 9 9 9 9 9 9 9 9 8 8 8 8 8 8 8 9 9 9 9 8 8 8 8 8 8 7 7 7 7 6 6 6 6 5
11 11 10 10 10 10 9 9 9 9 9 9 9 9 9 9 8 9 9 8 8 8 8 8 8 8 9 9 8 8 8 8 8 8 7 7 7 7 7 6 6 6 6 5
10 10 10 10 9 9 9 9 9 9 9 9 9 9 9 9 9 8 8 8 8 8 8 8 8 8 8 8 8 8 8 8 8 7 7 7 7 7 6 6 6 6 5 5
10 10 10 10 9 9 9 9 9 9 9 8 8 9 9 9 8 8 8 8 8 8 8 8 8 8 8 8 8 8 8 8 7 7 7 7 7 6 6 6 6 5 5 5
9 9 9 9 9 9 9 9 9 9 9 9 9 8 8 8 8 8 8 8 8 8 8 8 8 8 8 8 8 8 7 7 7 7 7 7 6 6 6 6 6 5 5 5
Wind_Speed
6 6 3 3 3 5 6 9 9 10 11 13 13 13 12 11 11 11 11 10 9 8 6 6 6 6 6 5 5 5 5 4 3 3 3 3 3 3 3 3 3 3 3 2
2 2 1 2 2 3 4 5 7 9 6 7 8 8 9 10 11 12 11 11 9 8 7 6 6 6 6 6 5 6 6 5 4 4 4 4 3 3 4 4 4 5 4 4
2 2 3 4 4 3 3 4 9 9 9 11 10 12 12 12 11 10 10 11 10 9 8 6 5 6 6 6 6 7 6 6 5 5 5 4 4 4 4 4 5 6 5 6
2 2 3 7 4 2 3 1 4 7 12 16 14 10 8 10 11 11 10 10 9 8 7 6 6 6 7 7 7 7 6 6 5 5 5 5 5 5 4 5 5 5 5 6
4 3 4 5 4 1 4 2 1 11 15 13 13 10 5 5 8 9 9 10 9 8 8 8 8 8 8 7 7 7 6 5 5 5 5 5 5 5 4 6 6 5 6 6
4 3 5 6 5 2 7 2 0 11 16 16 12 8 5 6 9 10 10 9 8 8 8 8 7 8 9 7 7 6 5 5 4 5 5 5 5 5 5 6 6 7 7 7
4 4 5 6 4 2 5 6 4 10 12 11 5 6 10 11 10 10 10 10 10 10 8 7 7 8 9 8 6 5 5 5 5 5 5 5 6 5 6 7 8 8 9 8
4 4 7 4 1 4 6 6 9 11 11 10 11 14 12 12 12 11 11 11 10 10 8 6 7 9 9 7 6 6 7 7 7 6 6 6 6 6 6 7 8 8 8 8
5 5 5 3 3 4 8 10 9 10 12 15 15 14 12 11 11 10 10 9 9 10 9 7 6 8 9 7 6 8 8 8 7 8 7 6 6 6 6 6 6 6 6 7
1 1 2 4 5 6 8 10 11 13 15 16 16 15 13 10 10 9 9 9 9 10 10 8 6 7 7 7 7 9 9 7 7 8 9 9 7 6 6 5 5 6 6 6
2 1 5 7 5 6 9 13 15 13 12 14 18 15 12 10 10 9 8 8 8 9 9 8 8 7 7 7 8 9 9 8 8 8 9 9 9 8 7 6 4 6 5 5
4 4 3 1 1 6 10 12 14 16 13 12 14 15 13 10 8 9 9 8 9 9 9 9 8 8 6 6 8 9 8 7 6 7 7 8 9 10 15 12 14 13 10 8
4 4 5 4 3 7 9 11 13 15 15 15 13 14 13 10 8 9 9 9 9 9 9 9 9 8 6 6 7 8 9 8 7 7 7 7 7 8 8 11 16 15 13 13
5 7 6 4 7 10 13 14 15 15 14 14 14 13 13 12 10 10 9 8 9 10 9 9 9 8 6 6 8 9 8 9 8 7 7 7 6 6 6 7 7 7 9 11
5 6 7 9 11 13 14 14 15 14 13 13 12 13 13 13 12 10 9 9 10 10 9 9 9 7 6 7 9 9 8 6 7 7 7 7 7 6 6 7 7 6 5 7
9 10 11 12 12 13 14 15 15 13 12 13 12 12 12 12 12 11 9 9 10 10 8 9 8 6 6 8 9 8 7 11 10 8 7 6 6 6 6 6 6 5 5 4
11 10 11 12 11 12 12 12 13 12 12 12 12 13 13 13 12 11 9 8 9 9 8 8 7 6 7 7 8 7 6 8 11 9 7 6 6 6 6 6 5 5 4 4
9 9 10 12 13 13 12 12 12 12 12 12 13 13 13 13 12 11 9 9 9 9 7 6 7 8 7 7 7 6 6 6 6 7 7 6 6 6 6 6 6 6 4 5
11 12 12 12 13 13 12 12 12 12 12 12 13 12 11 11 10 10 9 10 10 8 5 6 9 8 7 7 7 6 7 8 7 7 7 8 7 5 5 5 5 5 5 4
11 13 14 13 13 13 13 13 13 12 12 12 13 13 12 11 10 10 10 8 5 4 5 7 7 7 6 6 8 6 7 7 7 6 6 6 6 5 5 5 5 5 4 4
13 14 15 14 13 12 12 12 13 13 11 11 13 13 12 10 9 9 10 8 4 5 7 8 6 5 4 5 7 5 6 6 7 6 6 6 6 5 5 5 5 5 4 4
12 13 14 14 14 12 10 10 12 13 12 12 12 12 12 11 10 8 7 5 5 8 6 5 4 5 6 6 5 5 6 6 6 6 6 6 6 5 5 5 4 4 4 4
11 12 12 13 13 13 11 11 11 11 12 11 11 11 10 8 7 8 6 3 5 8 6 4 6 8 8 5 5 5 6 6 6 6 6 5 5 5 5 5 4 5 4 4
10 11 11 12 12 13 12 11 10 9 10 9 9 10 10 8 6 4 5 7 8 8 5 6 8 8 7 4 5 5 5 5 5 5 5 5 5 5 5 5 4 4 4 5
11 11 11 13 11 10 11 11 11 10 10 8 8 8 7 6 7 6 6 6 8 8 5 6 8 8 6 5 5 5 5 5 6 6 5 5 5 4 4 4 4 4 4 4
10 9 9 9 9 9 9 9 8 7 8 8 6 6 6 6 7 6 6 6 7 7 5 4 4 5 5 5 5 5 5 5 6 5 5 5 5 5 4 4 5 4 4 5
9 8 8 8 7 7 8 8 8 8 8 8 7 6 6 6 6 6 7 6 5 5 4 4 3 4 4 5 5 5 4 4 4 4 4 4 4 4 4 5 5 5 6 7
Wind_Direction
203 210 191 204 225 193 172 182 179 192 177 188 176 165 158 149 145 144 139 133 132 125 122 124 118 115 120 121 122 123 119 116 114 106 100 90 80 86 86 90 99 94 88 87
237 263 359 321 289 233 209 184 159 146 178 181 161 147 139 145 147 145 142 137 133 125 120 122 128 127 120 118 118 117 115 108 102 99 94 87 86 93 89 86 86 89 85 82
224 314 33 305 272 235 213 174 158 176 189 156 155 158 153 146 142 143 140 135 135 134 136 138 133 124 124 120 108 103 104 103 98 97 93 87 91 100 99 93 88 86 84 83
142 73 221 245 265 181 146 165 175 161 156 158 153 147 143 144 143 142 141 135 134 134 131 124 113 112 111 106 103 101 98 96 97 98 90 81 78 91 102 97 94 92 88 89
125 171 260 291 299 122 122 12 76 139 141 138 125 102 87 121 132 137 136 133 129 125 120 114 113 116 108 99 98 96 93 89 87 93 94 87 83 83 98 101 95 90 89 90
126 154 219 243 262 177 103 35 41 142 147 146 133 139 169 145 124 120 119 118 119 116 110 112 115 115 108 104 99 96 95 93 87 87 92 93 96 92 89 97 97 92 81 75
157 191 247 251 272 93 139 199 158 136 145 144 150 154 140 127 119 117 113 115 112 110 107 113 117 112 108 105 101 101 96 93 84 80 87 94 92 90 92 93 89 84 80 69
155 180 239 268 43 157 176 150 130 128 130 122 116 114 117 119 120 117 112 111 112 110 107 105 110 112 108 104 102 98 93 87 82 76 84 89 91 87 88 94 95 90 85 74
187 209 249 255 172 152 139 132 133 132 130 131 126 124 124 120 119 117 115 113 112 113 108 98 100 113 114 111 109 104 95 87 83 77 70 70 79 84 86 92 99 97 92 86
70 357 15 45 82 108 124 126 130 132 132 132 127 127 125 121 120 117 117 118 117 115 114 107 100 102 110 113 110 105 100 91 86 85 75 63 61 64 76 83 97 102 100 95
62 50 44 30 46 98 105 113 115 114 118 127 128 128 129 126 123 125 124 117 115 117 117 115 112 105 104 109 109 105 103 99 93 89 90 79 68 56 63 53 93 110 109 110
205 203 142 172 353 101 111 119 125 121 111 111 118 121 119 117 116 119 119 117 115 114 115 113 110 107 103 105 112 112 109 107 103 101 98 95 92 76 57 64 67 74 85 95
187 151 128 128 94 93 106 113 116 115 117 116 111 114 114 112 109 109 112 117 120 120 119 115 111 110 110 110 112 112 115 114 113 111 109 107 103 101 89 62 59 62 70 78
145 120 108 126 120 108 108 108 106 105 107 112 114 115 114 111 109 108 111 115 117 115 114 113 111 109 110 110 108 108 109 112 115 115 113 109 105 102 103 104 89 63 53 66
85 108 126 120 109 108 109 111 108 107 109 110 113 116 118 118 116 112 111 112 110 108 109 111 109 104 102 106 107 108 108 110 109 108 107 108 107 103 100 100 99 93 79 64
104 105 112 113 116 115 116 118 118 118 119 118 118 117 117 115 114 111 108 110 112 110 111 111 108 105 101 104 105 104 109 116 114 111 107 105 105 106 106 103 99 95 90 85
127 132 128 124 122 117 117 122 126 126 125 123 122 120 118 114 111 109 107 106 108 109 108 109 110 109 104 103 104 105 105 114 116 111 109 109 107 108 109 107 104 98 91 92
136 138 138 134 131 124 121 119 119 121 123 125 124 121 121 122 123 122 118 112 105 97 96 107 112 109 107 107 105 104 103 103 108 113 112 110 112 110 108 107 107 104 95 83
122 123 121 120 125 126 125 124 122 121 122 123 123 122 121 122 122 120 117 114 113 109 107 111 115 110 107 112 112 109 111 108 106 108 110 114 112 110 111 112 111 109 106 96
117 119 117 115 118 123 125 124 122 121 122 123 122 120 118 120 121 117 111 105 110 126 124 112 107 105 105 110 111 115 118 117 117 115 113 114 115 115 116 119 120 117 112 111
121 122 122 120 119 119 123 125 124 123 124 125 125 125 122 119 118 117 115 109 102 110 108 104 101 103 103 111 111 117 121 121 121 122 121 120 119 119 119 120 120 123 124 124
120 122 122 124 123 120 120 121 122 123 122 123 122 122 121 119 116 109 106 123 130 118 108 100 102 110 117 113 112 119 121 123 125 125 124 125 127 129 128 127 127 131 132 134
121 122 122 124 126 126 121 120 121 124 125 126 128 130 129 128 130 128 123 125 120 116 110 106 110 110 110 103 110 117 119 123 127 130 133 135 138 139 137 133 134 136 138 140
121 120 120 120 120 120 120 121 120 119 120 120 124 128 129 124 113 110 124 127 124 116 110 112 107 107 108 102 107 112 118 122 125 128 129 129 130 132 134 136 138 142 145 144
121 120 121 122 122 125 126 124 119 118 118 119 120 122 125 127 131 134 128 128 128 116 107 106 102 100 97 100 107 113 118 127 131 130 126 128 132 135 140 144 147 147 149 154
121 122 124 125 128 130 131 128 127 127 126 124 122 120 115 113 118 120 119 124 125 118 114 107 102 98 98 103 108 109 111 121 122 123 129 132 135 137 143 151 151 153 151 154
114 115 117 117 118 124 127 127 129 131 133 134 131 129 126 122 119 122 120 117 118 117 118 116 113 109 111 115 114 112 111 118 120 125 132 136 141 148 153 153 157 158 156 157
Height
1463 1458 1457 1459 1461 1462 1471 1478 1488 1488 1489 1486 1484 1484 1486 1488 1493 1496 1499 1501 1504 1507 1509 1510 1512 1513 1514 1515 1515 1516 1516 1515 1515 1515 1515 1514 1513 1513 1513 1514 1514 1515 1516 1517
1461 1455 1455 1459 1459 1459 1462 1465 1473 1478 1484 1479 1482 1484 1485 1488 1492 1496 1498 1501 1505 1508 1510 1511 1512 1513 1514 1514 1515 1516 1516 1515 1515 1515 1514 1514 1513 1513 1513 1513 1514 1515 1516 1516
1472 1460 1460 1471 1462 1460 1461 1460 1466 1476 1476 1476 1481 1483 1484 1488 1493 1497 1499 1502 1504 1506 1510 1511 1513 1514 1514 1515 1515 1515 1516 1516 1516 1515 1514 1514 1513 1513 1513 1514 1514 1515 1516 1517
1474 1469 1482 1472 1454 1453 1456 1458 1458 1460 1465 1470 1474 1480 1484 1487 1490 1495 1499 1501 1504 1506 1508 1510 1512 1514 1515 1515 1515 1516 1516 1516 1516 1516 1515 1514 1514 1513 1514 1515 1515 1516 1516 1517
1480 1482 1477 1463 1455 1455 1459 1465 1459 1461 1467 1473 1477 1482 1488 1489 1491 1493 1497 1500 1503 1506 1508 1510 1511 1513 1514 1515 1515 1516 1516 1516 1516 1516 1515 1515 1514 1514 1515 1515 1516 1517 1517 1519
1476 1480 1484 1467 1453 1450 1456 1471 1462 1462 1467 1471 1475 1485 1488 1489 1491 1494 1497 1500 1503 1506 1508 1509 1511 1513 1514 1515 1515 1516 1516 1516 1516 1516 1516 1516 1515 1516 1516 1516 1517 1518 1519 1520
1474 1477 1471 1456 1451 1451 1469 1472 1463 1463 1467 1470 1474 1477 1483 1487 1491 1494 1497 1500 1503 1505 1507 1509 1511 1512 1513 1514 1515 1516 1516 1516 1516 1516 1516 1517 1517 1517 1517 1518 1518 1519 1520 1521
1473 1477 1475 1452 1451 1455 1459 1457 1459 1463 1467 1471 1474 1478 1483 1487 1491 1495 1497 1500 1502 1505 1507 1509 1510 1512 1513 1513 1515 1516 1516 1516 1516 1517 1517 1518 1518 1518 1519 1519 1520 1521 1522 1523
1466 1466 1456 1451 1450 1451 1451 1454 1459 1462 1467 1471 1475 1480 1485 1489 1492 1496 1499 1501 1503 1505 1507 1509 1511 1512 1512 1514 1515 1516 1516 1517 1517 1518 1518 1519 1519 1520 1520 1521 1522 1523 1523 1524
1461 1459 1455 1453 1452 1453 1453 1454 1458 1462 1467 1471 1474 1480 1486 1490 1494 1496 1499 1502 1504 1506 1507 1509 1511 1512 1513 1514 1515 1516 1516 1517 1518 1518 1519 1520 1520 1521 1522 1522 1523 1524 1525 1525
1462 1460 1458 1458 1456 1456 1456 1457 1461 1466 1470 1472 1474 1481 1487 1491 1494 1497 1499 1502 1504 1506 1507 1509 1511 1512 1514 1515 1516 1516 1517 1518 1519 1520 1521 1521 1522 1522 1523 1524 1525 1526 1526 1527
1462 1460 1460 1461 1460 1459 1459 1460 1463 1466 1472 1476 1478 1482 1487 1491 1494 1497 1500 1502 1504 1506 1508 1509 1511 1513 1514 1516 1516 1517 1518 1519 1520 1521 1522 1523 1523 1524 1525 1526 1527 1528 1528 1529
1456 1457 1458 1460 1461 1461 1462 1465 1467 1469 1473 1477 1481 1485 1488 1492 1496 1498 1501 1503 1505 1507 1508 1510 1512 1513 1515 1517 1518 1519 1519 1521 1522 1523 1524 1525 1525 1526 1526 1528 1529 1530 1531 1532
1453 1455 1459 1460 1462 1464 1466 1468 1471 1472 1476 1480 1483 1487 1490 1494 1497 1500 1502 1505 1506 1508 1510 1512 1513 1515 1517 1519 1520 1520 1522 1523 1524 1524 1525 1527 1528 1529 1529 1530 1531 1533 1534 1535
1452 1454 1458 1460 1462 1465 1467 1471 1473 1476 1480 1483 1486 1489 1492 1495 1498 1501 1504 1506 1508 1510 1512 1513 1515 1517 1519 1520 1521 1522 1524 1525 1526 1527 1528 1529 1530 1531 1532 1533 1534 1535 1537 1538
1453 1457 1460 1462 1464 1466 1469 1473 1475 1479 1482 1485 1488 1491 1495 1497 1500 1503 1506 1508 1510 1511 1513 1515 1516 1518 1520 1522 1524 1525 1526 1527 1528 1529 1530 1531 1533 1534 1535 1536 1537 1539 1540 1541
1454 1458 1461 1463 1466 1468 1471 1475 1477 1480 1484 1487 1490 1494 1497 1500 1503 1506 1509 1511 1513 1514 1516 1517 1519 1521 1523 1525 1526 1527 1529 1530 1531 1532 1533 1534 1536 1537 1538 1539 1540 1541 1543 1544
1456 1458 1461 1463 1466 1470 1474 1478 1481 1484 1487 1490 1493 1496 1499 1502 1505 1508 1511 1514 1515 1517 1519 1521 1522 1524 1525 1527 1529 1530 1531 1532 1534 1535 1536 1538 1539 1541 1542 1543 1544 1544 1545 1547
1457 1460 1462 1465 1469 1472 1476 1480 1483 1487 1490 1493 1496 1499 1502 1505 1508 1511 1514 1516 1517 1519 1522 1523 1525 1527 1529 1530 1532 1533 1534 1535 1536 1538 1539 1541 1542 1543 1545 1546 1546 1547 1548 1549
1459 1462 1465 1468 1471 1475 1478 1482 1485 1489 1493 1496 1499 1501 1505 1508 1511 1513 1516 1518 1520 1522 1524 1526 1528 1530 1532 1533 1535 1536 1537 1538 1539 1541 1542 1543 1545 1546 1547 1548 1549 1550 1550 1551
1461 1464 1466 1470 1474 1477 1481 1484 1487 1491 1495 1498 1501 1503 1507 1510 1513 1516 1518 1520 1523 1525 1527 1529 1531 1532 1534 1536 1537 1538 1539 1540 1542 1543 1544 1545 1547 1548 1549 1550 1550 1551 1552 1552
1463 1465 1469 1472 1475 1480 1484 1487 1490 1494 1497 1500 1503 1506 1509 1513 1516 1518 1521 1523 1525 1528 1530 1531 1533 1535 1537 1538 1539 1540 1541 1542 1544 1545 1546 1547 1548 1549 1550 1551 1552 1552 1553 1553
1465 1468 1471 1475 1478 1482 1486 1490 1493 1497 1500 1503 1506 1509 1512 1515 1518 1520 1523 1526 1528 1530 1532 1533 1535 1537 1538 1540 1541 1542 1543 1544 1545 1547 1548 1549 1550 1551 1551 1552 1553 1553 1553 1554
1468 1471 1474 1478 1481 1485 1489 1493 1496 1500 1503 1506 1509 1512 1515 1517 1521 1523 1525 1528 1530 1532 1534 1536 1537 1539 1540 1541 1542 1544 1545 1546 1547 1548 1549 1550 1551 1551 1552 1553 1553 1553 1554 1554
1471 1475 1478 1481 1485 1488 1492 1495 1499 1503 1506 1510 1513 1516 1518 1521 1522 1525 1527 1530 1532 1534 1535 1537 1539 1540 1542 1543 1544 1545 1546 1547 1548 1549 1550 1550 1551 1552 1552 1553 1553 1553 1554 1554
1475 1479 1482 1485 1489 1492 1495 1499 1502 1506 1509 1512 1515 1518 1520 1523 1525 1527 1529 1531 1533 1535 1537 1539 1540 1542 1543 1544 1545 1546 1547 1548 1549 1550 1550 1551 1551 1552 1552 1553 1553 1553 1553 1553
1480 1483 1486 1489 1493 1496 1499 1502 1505 1508 1511 1514 1517 1520 1522 1524 1527 1529 1531 1533 1535 1537 1538 1540 1542 1543 1544 1545 1546 1547 1548 1548 1549 1550 1550 1551 1551 1551 1552 1552 1552 1552 1552 1552